Year,Month,Day,Hour,Minute,Value (Times are PST for temperature in C)
2015,09,29,00,00,7.70
2015,09,29,00,01,7.70
2015,09,29,00,02,7.70
2015,09,29,00,03,7.70
2015,09,29,00,04,7.60
2015,09,29,00,05,7.60
2015,09,29,00,06,7.60
2015,09,29,00,07,7.60
2015,09,29,00,08,7.60
2015,09,29,00,09,7.60
2015,09,29,00,10,7.60
2015,09,29,00,11,7.60
2015,09,29,00,12,7.60
2015,09,29,00,13,7.50
2015,09,29,00,14,7.50
2015,09,29,00,15,7.50
2015,09,29,00,16,7.50
2015,09,29,00,17,7.50
2015,09,29,00,18,7.50
2015,09,29,00,19,7.50
2015,09,29,00,20,7.50
2015,09,29,00,21,7.50
2015,09,29,00,22,7.40
2015,09,29,00,23,7.40
2015,09,29,00,24,7.40
2015,09,29,00,25,7.40
2015,09,29,00,26,7.40
2015,09,29,00,27,7.40
2015,09,29,00,28,7.40
2015,09,29,00,29,7.40
2015,09,29,00,30,7.40
2015,09,29,00,31,7.30
2015,09,29,00,32,7.30
2015,09,29,00,33,7.30
2015,09,29,00,34,7.30
2015,09,29,00,35,7.30
2015,09,29,00,36,7.20
2015,09,29,00,37,7.20
2015,09,29,00,38,7.20
2015,09,29,00,39,7.20
2015,09,29,00,40,7.20
2015,09,29,00,41,7.20
2015,09,29,00,42,7.20
2015,09,29,00,43,7.20
2015,09,29,00,44,7.20
2015,09,29,00,45,7.20
2015,09,29,00,46,7.20
2015,09,29,00,47,7.20
2015,09,29,00,48,7.20
2015,09,29,00,49,7.20
2015,09,29,00,50,7.20
2015,09,29,00,51,7.20
2015,09,29,00,52,7.10
2015,09,29,00,53,7.10
2015,09,29,00,54,7.10
2015,09,29,00,55,7.10
2015,09,29,00,56,7.10
2015,09,29,00,57,7.10
2015,09,29,00,58,7.10
2015,09,29,00,59,7.10
2015,09,29,01,00,7.00
2015,09,29,01,01,7.00
2015,09,29,01,02,7.00
2015,09,29,01,03,7.00
2015,09,29,01,04,7.00
2015,09,29,01,05,7.00
2015,09,29,01,06,6.90
2015,09,29,01,07,6.90
2015,09,29,01,08,6.90
2015,09,29,01,09,6.90
2015,09,29,01,10,6.90
2015,09,29,01,11,6.80
2015,09,29,01,12,6.80
2015,09,29,01,13,6.80
2015,09,29,01,14,6.80
2015,09,29,01,15,6.80
2015,09,29,01,16,6.80
2015,09,29,01,17,6.80
2015,09,29,01,18,6.80
2015,09,29,01,19,6.80
2015,09,29,01,20,6.80
2015,09,29,01,21,6.70
2015,09,29,01,22,6.70
2015,09,29,01,23,6.70
2015,09,29,01,24,6.70
2015,09,29,01,25,6.70
2015,09,29,01,26,6.70
2015,09,29,01,27,6.70
2015,09,29,01,28,6.70
2015,09,29,01,29,6.70
2015,09,29,01,30,6.60
2015,09,29,01,31,6.60
2015,09,29,01,32,6.60
2015,09,29,01,33,6.60
2015,09,29,01,34,6.60
2015,09,29,01,35,6.60
2015,09,29,01,36,6.60
2015,09,29,01,37,6.60
2015,09,29,01,38,6.50
2015,09,29,01,39,6.50
2015,09,29,01,40,6.50
2015,09,29,01,41,6.50
2015,09,29,01,42,6.50
2015,09,29,01,43,6.40
2015,09,29,01,44,6.40
2015,09,29,01,45,6.40
2015,09,29,01,46,6.40
2015,09,29,01,47,6.40
2015,09,29,01,48,6.40
2015,09,29,01,49,6.40
2015,09,29,01,50,6.40
2015,09,29,01,51,6.40
2015,09,29,01,52,6.40
2015,09,29,01,53,6.40
2015,09,29,01,54,6.40
2015,09,29,01,55,6.30
2015,09,29,01,56,6.30
2015,09,29,01,57,6.30
2015,09,29,01,58,6.30
2015,09,29,01,59,6.30
2015,09,29,02,00,6.30
2015,09,29,02,01,6.30
2015,09,29,02,02,6.30
2015,09,29,02,03,6.30
2015,09,29,02,04,6.30
2015,09,29,02,05,6.30
2015,09,29,02,06,6.30
2015,09,29,02,07,6.20
2015,09,29,02,08,6.20
2015,09,29,02,09,6.20
2015,09,29,02,10,6.20
2015,09,29,02,11,6.20
2015,09,29,02,12,6.20
2015,09,29,02,13,6.20
2015,09,29,02,14,6.20
2015,09,29,02,15,6.20
2015,09,29,02,16,6.20
2015,09,29,02,17,6.20
2015,09,29,02,18,6.10
2015,09,29,02,19,6.10
2015,09,29,02,20,6.10
2015,09,29,02,21,6.10
2015,09,29,02,22,6.10
2015,09,29,02,23,6.10
2015,09,29,02,24,6.10
2015,09,29,02,25,6.10
2015,09,29,02,26,6.10
2015,09,29,02,27,6.00
2015,09,29,02,28,6.00
2015,09,29,02,29,6.00
2015,09,29,02,30,6.00
2015,09,29,02,31,6.00
2015,09,29,02,32,6.00
2015,09,29,02,33,5.90
2015,09,29,02,34,5.90
2015,09,29,02,35,5.90
2015,09,29,02,36,5.90
2015,09,29,02,37,5.90
2015,09,29,02,38,5.90
2015,09,29,02,39,5.90
2015,09,29,02,40,5.90
2015,09,29,02,41,5.90
2015,09,29,02,42,5.90
2015,09,29,02,43,5.80
2015,09,29,02,44,5.80
2015,09,29,02,45,5.80
2015,09,29,02,46,5.80
2015,09,29,02,47,5.80
2015,09,29,02,48,5.80
2015,09,29,02,49,5.80
2015,09,29,02,50,5.80
2015,09,29,02,51,5.80
2015,09,29,02,52,5.80
2015,09,29,02,53,5.80
2015,09,29,02,54,5.80
2015,09,29,02,55,5.80
2015,09,29,02,56,5.70
2015,09,29,02,57,5.70
2015,09,29,02,58,5.70
2015,09,29,02,59,5.70
2015,09,29,03,00,5.70
2015,09,29,03,01,5.70
2015,09,29,03,02,5.70
2015,09,29,03,03,5.70
2015,09,29,03,04,5.70
2015,09,29,03,05,5.70
2015,09,29,03,06,5.70
2015,09,29,03,07,5.70
2015,09,29,03,08,5.70
2015,09,29,03,09,5.60
2015,09,29,03,10,5.60
2015,09,29,03,11,5.60
2015,09,29,03,12,5.60
2015,09,29,03,13,5.60
2015,09,29,03,14,5.60
2015,09,29,03,15,5.60
2015,09,29,03,16,5.60
2015,09,29,03,17,5.60
2015,09,29,03,18,5.60
2015,09,29,03,19,5.60
2015,09,29,03,20,5.50
2015,09,29,03,21,5.50
2015,09,29,03,22,5.50
2015,09,29,03,23,5.50
2015,09,29,03,24,5.50
2015,09,29,03,25,5.50
2015,09,29,03,26,5.40
2015,09,29,03,27,5.40
2015,09,29,03,28,5.40
2015,09,29,03,29,5.40
2015,09,29,03,30,5.40
2015,09,29,03,31,5.40
2015,09,29,03,32,5.40
2015,09,29,03,33,5.40
2015,09,29,03,34,5.30
2015,09,29,03,35,5.30
2015,09,29,03,36,5.30
2015,09,29,03,37,5.30
2015,09,29,03,38,5.30
2015,09,29,03,39,5.30
2015,09,29,03,40,5.30
2015,09,29,03,41,5.30
2015,09,29,03,42,5.30
2015,09,29,03,43,5.30
2015,09,29,03,44,5.30
2015,09,29,03,45,5.30
2015,09,29,03,46,5.30
2015,09,29,03,47,5.30
2015,09,29,03,48,5.30
2015,09,29,03,49,5.30
2015,09,29,03,50,5.30
2015,09,29,03,51,5.30
2015,09,29,03,52,5.30
2015,09,29,03,53,5.30
2015,09,29,03,54,5.30
2015,09,29,03,55,5.30
2015,09,29,03,56,5.30
2015,09,29,03,57,5.30
2015,09,29,03,58,5.30
2015,09,29,03,59,5.30
2015,09,29,04,00,5.30
2015,09,29,04,01,5.30
2015,09,29,04,02,5.30
2015,09,29,04,03,5.30
2015,09,29,04,04,5.30
2015,09,29,04,05,5.30
2015,09,29,04,06,5.30
2015,09,29,04,07,5.20
2015,09,29,04,08,5.20
2015,09,29,04,09,5.20
2015,09,29,04,10,5.20
2015,09,29,04,11,5.20
2015,09,29,04,12,5.20
2015,09,29,04,13,5.20
2015,09,29,04,14,5.20
2015,09,29,04,15,5.20
2015,09,29,04,16,5.20
2015,09,29,04,17,5.20
2015,09,29,04,18,5.20
2015,09,29,04,19,5.20
2015,09,29,04,20,5.20
2015,09,29,04,21,5.20
2015,09,29,04,22,5.10
2015,09,29,04,23,5.10
2015,09,29,04,24,5.10
2015,09,29,04,25,5.10
2015,09,29,04,26,5.10
2015,09,29,04,27,5.10
2015,09,29,04,28,5.10
2015,09,29,04,29,5.10
2015,09,29,04,30,5.10
2015,09,29,04,31,5.10
2015,09,29,04,32,5.10
2015,09,29,04,33,5.10
2015,09,29,04,34,5.10
2015,09,29,04,35,5.10
2015,09,29,04,36,5.10
2015,09,29,04,37,5.10
2015,09,29,04,38,5.10
2015,09,29,04,39,5.10
2015,09,29,04,40,5.10
2015,09,29,04,41,5.10
2015,09,29,04,42,5.10
2015,09,29,04,43,5.10
2015,09,29,04,44,5.10
2015,09,29,04,45,5.10
2015,09,29,04,46,5.10
2015,09,29,04,47,5.10
2015,09,29,04,48,5.10
2015,09,29,04,49,5.10
2015,09,29,04,50,5.10
2015,09,29,04,51,5.10
2015,09,29,04,52,5.10
2015,09,29,04,53,5.10
2015,09,29,04,54,5.10
2015,09,29,04,55,5.10
2015,09,29,04,56,5.10
2015,09,29,04,57,5.10
2015,09,29,04,58,5.10
2015,09,29,04,59,5.10
2015,09,29,05,00,5.10
2015,09,29,05,01,5.00
2015,09,29,05,02,5.00
2015,09,29,05,03,5.00
2015,09,29,05,04,5.00
2015,09,29,05,05,5.00
2015,09,29,05,06,5.00
2015,09,29,05,07,5.00
2015,09,29,05,08,5.00
2015,09,29,05,09,5.00
2015,09,29,05,10,5.00
2015,09,29,05,11,5.00
2015,09,29,05,12,4.90
2015,09,29,05,13,4.90
2015,09,29,05,14,4.90
2015,09,29,05,15,4.90
2015,09,29,05,16,4.90
2015,09,29,05,17,4.90
2015,09,29,05,18,4.90
2015,09,29,05,19,4.90
2015,09,29,05,20,4.80
2015,09,29,05,21,4.80
2015,09,29,05,22,4.80
2015,09,29,05,23,4.80
2015,09,29,05,24,4.80
2015,09,29,05,25,4.80
2015,09,29,05,26,4.80
2015,09,29,05,27,4.80
2015,09,29,05,28,4.80
2015,09,29,05,29,4.80
2015,09,29,05,30,4.80
2015,09,29,05,31,4.80
2015,09,29,05,32,4.80
2015,09,29,05,33,4.80
2015,09,29,05,34,4.80
2015,09,29,05,35,4.80
2015,09,29,05,36,4.80
2015,09,29,05,37,4.80
2015,09,29,05,38,4.80
2015,09,29,05,39,4.80
2015,09,29,05,40,4.80
2015,09,29,05,41,4.80
2015,09,29,05,42,4.80
2015,09,29,05,43,4.80
2015,09,29,05,44,4.80
2015,09,29,05,45,4.80
2015,09,29,05,46,4.70
2015,09,29,05,47,4.70
2015,09,29,05,48,4.70
2015,09,29,05,49,4.70
2015,09,29,05,50,4.70
2015,09,29,05,51,4.70
2015,09,29,05,52,4.70
2015,09,29,05,53,4.70
2015,09,29,05,54,4.70
2015,09,29,05,55,4.70
2015,09,29,05,56,4.70
2015,09,29,05,57,4.70
2015,09,29,05,58,4.70
2015,09,29,05,59,4.70
2015,09,29,06,00,4.70
2015,09,29,06,01,4.70
2015,09,29,06,02,4.70
2015,09,29,06,03,4.70
2015,09,29,06,04,4.70
2015,09,29,06,05,4.70
2015,09,29,06,06,4.70
2015,09,29,06,07,4.60
2015,09,29,06,08,4.60
2015,09,29,06,09,4.60
2015,09,29,06,10,4.60
2015,09,29,06,11,4.60
2015,09,29,06,12,4.60
2015,09,29,06,13,4.60
2015,09,29,06,14,4.60
2015,09,29,06,15,4.60
2015,09,29,06,16,4.60
2015,09,29,06,17,4.60
2015,09,29,06,18,4.60
2015,09,29,06,19,4.60
2015,09,29,06,20,4.50
2015,09,29,06,21,4.50
2015,09,29,06,22,4.50
2015,09,29,06,23,4.50
2015,09,29,06,24,4.50
2015,09,29,06,25,4.50
2015,09,29,06,26,4.50
2015,09,29,06,27,4.50
2015,09,29,06,28,4.50
2015,09,29,06,29,4.50
2015,09,29,06,30,4.40
2015,09,29,06,31,4.40
2015,09,29,06,32,4.40
2015,09,29,06,33,4.40
2015,09,29,06,34,4.40
2015,09,29,06,35,4.40
2015,09,29,06,36,4.40
2015,09,29,06,37,4.40
2015,09,29,06,38,4.40
2015,09,29,06,39,4.40
2015,09,29,06,40,4.40
2015,09,29,06,41,4.40
2015,09,29,06,42,4.40
2015,09,29,06,43,4.40
2015,09,29,06,44,4.40
2015,09,29,06,45,4.40
2015,09,29,06,46,4.40
2015,09,29,06,47,4.40
2015,09,29,06,48,4.30
2015,09,29,06,49,4.30
2015,09,29,06,50,4.30
2015,09,29,06,51,4.30
2015,09,29,06,52,4.30
2015,09,29,06,53,4.30
2015,09,29,06,54,4.30
2015,09,29,06,55,4.30
2015,09,29,06,56,4.30
2015,09,29,06,57,4.30
2015,09,29,06,58,4.30
2015,09,29,06,59,4.30
2015,09,29,07,00,4.30
2015,09,29,07,01,4.30
2015,09,29,07,02,4.30
2015,09,29,07,03,4.30
2015,09,29,07,04,4.30
2015,09,29,07,05,4.30
2015,09,29,07,06,4.30
2015,09,29,07,07,4.30
2015,09,29,07,08,4.30
2015,09,29,07,09,4.30
2015,09,29,07,10,4.30
2015,09,29,07,11,4.30
2015,09,29,07,12,4.30
2015,09,29,07,13,4.30
2015,09,29,07,14,4.30
2015,09,29,07,15,4.30
2015,09,29,07,16,4.30
2015,09,29,07,17,4.30
2015,09,29,07,18,4.30
2015,09,29,07,19,4.20
2015,09,29,07,20,4.20
2015,09,29,07,21,4.20
2015,09,29,07,22,4.20
2015,09,29,07,23,4.20
2015,09,29,07,24,4.20
2015,09,29,07,25,4.20
2015,09,29,07,26,4.20
2015,09,29,07,27,4.20
2015,09,29,07,28,4.20
2015,09,29,07,29,4.20
2015,09,29,07,30,4.20
2015,09,29,07,31,4.20
2015,09,29,07,32,4.20
2015,09,29,07,33,4.20
2015,09,29,07,34,4.20
2015,09,29,07,35,4.20
2015,09,29,07,36,4.20
2015,09,29,07,37,4.20
2015,09,29,07,38,4.20
2015,09,29,07,39,4.20
2015,09,29,07,40,4.20
2015,09,29,07,41,4.20
2015,09,29,07,42,4.20
2015,09,29,07,43,4.20
2015,09,29,07,44,4.10
2015,09,29,07,45,4.20
2015,09,29,07,46,4.20
2015,09,29,07,47,4.20
2015,09,29,07,48,4.20
2015,09,29,07,49,4.20
2015,09,29,07,50,4.20
2015,09,29,07,51,4.20
2015,09,29,07,52,4.20
2015,09,29,07,53,4.20
2015,09,29,07,54,4.20
2015,09,29,07,55,4.20
2015,09,29,07,56,4.20
2015,09,29,07,57,4.20
2015,09,29,07,58,4.20
2015,09,29,07,59,4.20
2015,09,29,08,00,4.20
2015,09,29,08,01,4.20
2015,09,29,08,02,4.30
2015,09,29,08,03,4.30
2015,09,29,08,04,4.30
2015,09,29,08,05,4.30
2015,09,29,08,06,4.30
2015,09,29,08,07,4.30
2015,09,29,08,08,4.30
2015,09,29,08,09,4.30
2015,09,29,08,10,4.40
2015,09,29,08,11,4.40
2015,09,29,08,12,4.40
2015,09,29,08,13,4.40
2015,09,29,08,14,4.50
2015,09,29,08,15,4.50
2015,09,29,08,16,4.50
2015,09,29,08,17,4.50
2015,09,29,08,18,4.50
2015,09,29,08,19,4.60
2015,09,29,08,20,4.60
2015,09,29,08,21,4.60
2015,09,29,08,22,4.60
2015,09,29,08,23,4.70
2015,09,29,08,24,4.70
2015,09,29,08,25,4.80
2015,09,29,08,26,4.80
2015,09,29,08,27,4.90
2015,09,29,08,28,4.90
2015,09,29,08,29,4.90
2015,09,29,08,30,5.00
2015,09,29,08,31,5.00
2015,09,29,08,32,5.10
2015,09,29,08,33,5.10
2015,09,29,08,34,5.10
2015,09,29,08,35,5.10
2015,09,29,08,36,5.20
2015,09,29,08,37,5.20
2015,09,29,08,38,5.20
2015,09,29,08,39,5.20
2015,09,29,08,40,5.30
2015,09,29,08,41,5.30
2015,09,29,08,42,5.40
2015,09,29,08,43,5.50
2015,09,29,08,44,5.50
2015,09,29,08,45,5.60
2015,09,29,08,46,5.70
2015,09,29,08,47,5.70
2015,09,29,08,48,5.80
2015,09,29,08,49,5.90
2015,09,29,08,50,5.90
2015,09,29,08,51,6.00
2015,09,29,08,52,6.10
2015,09,29,08,53,6.10
2015,09,29,08,54,6.20
2015,09,29,08,55,6.20
2015,09,29,08,56,6.30
2015,09,29,08,57,6.40
2015,09,29,08,58,6.40
2015,09,29,08,59,6.50
2015,09,29,09,00,6.60
2015,09,29,09,01,6.70
2015,09,29,09,02,6.80
2015,09,29,09,03,6.80
2015,09,29,09,04,6.90
2015,09,29,09,05,6.90
2015,09,29,09,06,7.00
2015,09,29,09,07,7.10
2015,09,29,09,08,7.20
2015,09,29,09,09,7.20
2015,09,29,09,10,7.30
2015,09,29,09,11,7.40
2015,09,29,09,12,7.50
2015,09,29,09,13,7.50
2015,09,29,09,14,7.60
2015,09,29,09,15,7.70
2015,09,29,09,16,7.80
2015,09,29,09,17,7.80
2015,09,29,09,18,7.90
2015,09,29,09,19,7.90
2015,09,29,09,20,8.00
2015,09,29,09,21,8.00
2015,09,29,09,22,8.10
2015,09,29,09,23,8.10
2015,09,29,09,24,8.20
2015,09,29,09,25,8.30
2015,09,29,09,26,8.30
2015,09,29,09,27,8.40
2015,09,29,09,28,8.40
2015,09,29,09,29,8.50
2015,09,29,09,30,8.60
2015,09,29,09,31,8.60
2015,09,29,09,32,8.70
2015,09,29,09,33,8.80
2015,09,29,09,34,9.00
2015,09,29,09,35,9.10
2015,09,29,09,36,9.20
2015,09,29,09,37,9.40
2015,09,29,09,38,9.50
2015,09,29,09,39,9.60
2015,09,29,09,40,9.70
2015,09,29,09,41,9.80
2015,09,29,09,42,9.90
2015,09,29,09,43,10.00
2015,09,29,09,44,10.10
2015,09,29,09,45,10.20
2015,09,29,09,46,10.30
2015,09,29,09,47,10.40
2015,09,29,09,48,10.40
2015,09,29,09,49,10.50
2015,09,29,09,50,10.60
2015,09,29,09,51,10.60
2015,09,29,09,52,10.60
2015,09,29,09,53,10.70
2015,09,29,09,54,10.80
2015,09,29,09,55,10.90
2015,09,29,09,56,11.00
2015,09,29,09,57,11.10
2015,09,29,09,58,11.20
2015,09,29,09,59,11.20
2015,09,29,10,00,11.30
2015,09,29,10,01,11.30
2015,09,29,10,02,11.40
2015,09,29,10,03,11.60
2015,09,29,10,04,11.70
2015,09,29,10,05,11.90
2015,09,29,10,06,12.00
2015,09,29,10,07,12.10
2015,09,29,10,08,12.20
2015,09,29,10,09,12.30
2015,09,29,10,10,12.30
2015,09,29,10,11,12.40
2015,09,29,10,12,12.40
2015,09,29,10,13,12.50
2015,09,29,10,14,12.60
2015,09,29,10,15,12.70
2015,09,29,10,16,12.70
2015,09,29,10,17,12.80
2015,09,29,10,18,12.90
2015,09,29,10,19,12.90
2015,09,29,10,20,13.00
2015,09,29,10,21,13.10
2015,09,29,10,22,13.10
2015,09,29,10,23,13.20
2015,09,29,10,24,13.20
2015,09,29,10,25,13.30
2015,09,29,10,26,13.40
2015,09,29,10,27,13.50
2015,09,29,10,28,13.60
2015,09,29,10,29,13.60
2015,09,29,10,30,13.70
2015,09,29,10,31,13.70
2015,09,29,10,32,13.80
2015,09,29,10,33,13.80
2015,09,29,10,34,13.90
2015,09,29,10,35,13.90
2015,09,29,10,36,14.00
2015,09,29,10,37,14.10
2015,09,29,10,38,14.20
2015,09,29,10,39,14.30
2015,09,29,10,40,14.30
2015,09,29,10,41,14.40
2015,09,29,10,42,14.50
2015,09,29,10,43,14.70
2015,09,29,10,44,14.80
2015,09,29,10,45,14.90
2015,09,29,10,46,15.00
2015,09,29,10,47,15.00
2015,09,29,10,48,15.00
2015,09,29,10,49,15.00
2015,09,29,10,50,15.00
2015,09,29,10,51,15.20
2015,09,29,10,52,15.30
2015,09,29,10,53,15.40
2015,09,29,10,54,15.40
2015,09,29,10,55,15.40
2015,09,29,10,56,15.40
2015,09,29,10,57,15.40
2015,09,29,10,58,15.40
2015,09,29,10,59,15.40
2015,09,29,11,00,15.40
2015,09,29,11,01,15.40
2015,09,29,11,02,15.50
2015,09,29,11,03,15.50
2015,09,29,11,04,15.60
2015,09,29,11,05,15.60
2015,09,29,11,06,15.60
2015,09,29,11,07,15.70
2015,09,29,11,08,15.70
2015,09,29,11,09,15.70
2015,09,29,11,10,15.80
2015,09,29,11,11,15.80
2015,09,29,11,12,15.90
2015,09,29,11,13,16.00
2015,09,29,11,14,16.10
2015,09,29,11,15,16.10
2015,09,29,11,16,16.10
2015,09,29,11,17,16.10
2015,09,29,11,18,16.10
2015,09,29,11,19,16.10
2015,09,29,11,20,16.20
2015,09,29,11,21,16.20
2015,09,29,11,22,16.30
2015,09,29,11,23,16.30
2015,09,29,11,24,16.40
2015,09,29,11,25,16.40
2015,09,29,11,26,16.50
2015,09,29,11,27,16.60
2015,09,29,11,28,16.60
2015,09,29,11,29,16.70
2015,09,29,11,30,16.70
2015,09,29,11,31,16.70
2015,09,29,11,32,16.80
2015,09,29,11,33,16.80
2015,09,29,11,34,16.90
2015,09,29,11,35,17.00
2015,09,29,11,36,17.10
2015,09,29,11,37,17.10
2015,09,29,11,38,17.10
2015,09,29,11,39,17.10
2015,09,29,11,40,17.00
2015,09,29,11,41,17.00
2015,09,29,11,42,17.00
2015,09,29,11,43,17.00
2015,09,29,11,44,17.00
2015,09,29,11,45,17.10
2015,09,29,11,46,17.10
2015,09,29,11,47,17.10
2015,09,29,11,48,17.10
2015,09,29,11,49,17.10
2015,09,29,11,50,17.10
2015,09,29,11,51,17.20
2015,09,29,11,52,17.20
2015,09,29,11,53,17.30
2015,09,29,11,54,17.40
2015,09,29,11,55,17.50
2015,09,29,11,56,17.60
2015,09,29,11,57,17.70
2015,09,29,11,58,17.70
2015,09,29,11,59,17.80
2015,09,29,12,00,17.90
2015,09,29,12,01,17.90
2015,09,29,12,02,18.00
2015,09,29,12,03,18.00
2015,09,29,12,04,18.10
2015,09,29,12,05,18.20
2015,09,29,12,06,18.20
2015,09,29,12,07,18.30
2015,09,29,12,08,18.40
2015,09,29,12,09,18.40
2015,09,29,12,10,18.40
2015,09,29,12,11,18.40
2015,09,29,12,12,18.40
2015,09,29,12,13,18.40
2015,09,29,12,14,18.40
2015,09,29,12,15,18.40
2015,09,29,12,16,18.50
2015,09,29,12,17,18.50
2015,09,29,12,18,18.40
2015,09,29,12,19,18.50
2015,09,29,12,20,18.50
2015,09,29,12,21,18.40
2015,09,29,12,22,18.40
2015,09,29,12,23,18.40
2015,09,29,12,24,18.40
2015,09,29,12,25,18.50
2015,09,29,12,26,18.60
2015,09,29,12,27,18.70
2015,09,29,12,28,18.80
2015,09,29,12,29,18.80
2015,09,29,12,30,18.80
2015,09,29,12,31,18.90
2015,09,29,12,32,18.90
2015,09,29,12,33,18.90
2015,09,29,12,34,19.00
2015,09,29,12,35,19.00
2015,09,29,12,36,19.10
2015,09,29,12,37,19.10
2015,09,29,12,38,19.10
2015,09,29,12,39,19.20
2015,09,29,12,40,19.20
2015,09,29,12,41,19.30
2015,09,29,12,42,19.30
2015,09,29,12,43,19.40
2015,09,29,12,44,19.50
2015,09,29,12,45,19.60
2015,09,29,12,46,19.70
2015,09,29,12,47,19.70
2015,09,29,12,48,19.70
2015,09,29,12,49,19.70
2015,09,29,12,50,19.80
2015,09,29,12,51,19.80
2015,09,29,12,52,19.80
2015,09,29,12,53,19.90
2015,09,29,12,54,19.90
2015,09,29,12,55,20.00
2015,09,29,12,56,20.00
2015,09,29,12,57,20.10
2015,09,29,12,58,20.10
2015,09,29,12,59,20.20
2015,09,29,13,00,20.20
2015,09,29,13,01,20.20
2015,09,29,13,02,20.30
2015,09,29,13,03,20.40
2015,09,29,13,04,20.40
2015,09,29,13,05,20.40
2015,09,29,13,06,20.50
2015,09,29,13,07,20.50
2015,09,29,13,08,20.50
2015,09,29,13,09,20.60
2015,09,29,13,10,20.70
2015,09,29,13,11,20.70
2015,09,29,13,12,20.70
2015,09,29,13,13,20.70
2015,09,29,13,14,20.80
2015,09,29,13,15,20.80
2015,09,29,13,16,20.90
2015,09,29,13,17,20.90
2015,09,29,13,18,20.90
2015,09,29,13,19,21.00
2015,09,29,13,20,21.00
2015,09,29,13,21,21.00
2015,09,29,13,22,21.00
2015,09,29,13,23,20.90
2015,09,29,13,24,20.90
2015,09,29,13,25,20.90
2015,09,29,13,26,20.90
2015,09,29,13,27,20.90
2015,09,29,13,28,20.90
2015,09,29,13,29,20.80
2015,09,29,13,30,20.80
2015,09,29,13,31,20.80
2015,09,29,13,32,20.80
2015,09,29,13,33,20.80
2015,09,29,13,34,20.80
2015,09,29,13,35,20.90
2015,09,29,13,36,20.90
2015,09,29,13,37,20.90
2015,09,29,13,38,20.90
2015,09,29,13,39,20.90
2015,09,29,13,40,21.00
2015,09,29,13,41,21.00
2015,09,29,13,42,21.10
2015,09,29,13,43,21.10
2015,09,29,13,44,21.20
2015,09,29,13,45,21.20
2015,09,29,13,46,21.20
2015,09,29,13,47,21.30
2015,09,29,13,48,21.30
2015,09,29,13,49,21.30
2015,09,29,13,50,21.30
2015,09,29,13,51,21.30
2015,09,29,13,52,21.30
2015,09,29,13,53,21.30
2015,09,29,13,54,21.30
2015,09,29,13,55,21.30
2015,09,29,13,56,21.30
2015,09,29,13,57,21.40
2015,09,29,13,58,21.40
2015,09,29,13,59,21.40
2015,09,29,14,00,21.40
2015,09,29,14,01,21.40
2015,09,29,14,02,21.40
2015,09,29,14,03,21.40
2015,09,29,14,04,21.50
2015,09,29,14,05,21.50
2015,09,29,14,06,21.60
2015,09,29,14,07,21.60
2015,09,29,14,08,21.60
2015,09,29,14,09,21.60
2015,09,29,14,10,21.60
2015,09,29,14,11,21.60
2015,09,29,14,12,21.60
2015,09,29,14,13,21.60
2015,09,29,14,14,21.60
2015,09,29,14,15,21.60
2015,09,29,14,16,21.70
2015,09,29,14,17,21.70
2015,09,29,14,18,21.70
2015,09,29,14,19,21.70
2015,09,29,14,20,21.80
2015,09,29,14,21,21.80
2015,09,29,14,22,21.90
2015,09,29,14,23,22.00
2015,09,29,14,24,22.10
2015,09,29,14,25,22.20
2015,09,29,14,26,22.20
2015,09,29,14,27,22.20
2015,09,29,14,28,22.20
2015,09,29,14,29,22.20
2015,09,29,14,30,22.10
2015,09,29,14,31,22.10
2015,09,29,14,32,22.10
2015,09,29,14,33,22.10
2015,09,29,14,34,22.10
2015,09,29,14,35,22.10
2015,09,29,14,36,22.10
2015,09,29,14,37,22.10
2015,09,29,14,38,22.10
2015,09,29,14,39,22.10
2015,09,29,14,40,22.10
2015,09,29,14,41,22.10
2015,09,29,14,42,22.10
2015,09,29,14,43,22.10
2015,09,29,14,44,22.10
2015,09,29,14,45,22.10
2015,09,29,14,46,22.10
2015,09,29,14,47,22.10
2015,09,29,14,48,22.00
2015,09,29,14,49,21.90
2015,09,29,14,50,21.80
2015,09,29,14,51,21.80
2015,09,29,14,52,21.80
2015,09,29,14,53,21.80
2015,09,29,14,54,21.80
2015,09,29,14,55,21.90
2015,09,29,14,56,21.90
2015,09,29,14,57,21.80
2015,09,29,14,58,21.80
2015,09,29,14,59,21.80
2015,09,29,15,00,21.80
2015,09,29,15,01,21.80
2015,09,29,15,02,21.80
2015,09,29,15,03,21.80
2015,09,29,15,04,21.80
2015,09,29,15,05,21.90
2015,09,29,15,06,21.90
2015,09,29,15,07,21.90
2015,09,29,15,08,22.00
2015,09,29,15,09,22.00
2015,09,29,15,10,22.10
2015,09,29,15,11,22.10
2015,09,29,15,12,22.10
2015,09,29,15,13,22.20
2015,09,29,15,14,22.20
2015,09,29,15,15,22.20
2015,09,29,15,16,22.20
2015,09,29,15,17,22.30
2015,09,29,15,18,22.30
2015,09,29,15,19,22.30
2015,09,29,15,20,22.30
2015,09,29,15,21,22.40
2015,09,29,15,22,22.40
2015,09,29,15,23,22.50
2015,09,29,15,24,22.50
2015,09,29,15,25,22.60
2015,09,29,15,26,22.50
2015,09,29,15,27,22.40
2015,09,29,15,28,22.40
2015,09,29,15,29,22.40
2015,09,29,15,30,22.30
2015,09,29,15,31,22.30
2015,09,29,15,32,22.20
2015,09,29,15,33,22.20
2015,09,29,15,34,22.20
2015,09,29,15,35,22.20
2015,09,29,15,36,22.20
2015,09,29,15,37,22.30
2015,09,29,15,38,22.30
2015,09,29,15,39,22.30
2015,09,29,15,40,22.40
2015,09,29,15,41,22.40
2015,09,29,15,42,22.30
2015,09,29,15,43,22.30
2015,09,29,15,44,22.20
2015,09,29,15,45,22.20
2015,09,29,15,46,22.20
2015,09,29,15,47,22.20
2015,09,29,15,48,22.10
2015,09,29,15,49,22.10
2015,09,29,15,50,22.10
2015,09,29,15,51,22.10
2015,09,29,15,52,22.10
2015,09,29,15,53,22.00
2015,09,29,15,54,21.90
2015,09,29,15,55,21.90
2015,09,29,15,56,21.90
2015,09,29,15,57,21.90
2015,09,29,15,58,21.90
2015,09,29,15,59,21.90
2015,09,29,16,00,22.00
2015,09,29,16,01,22.00
2015,09,29,16,02,22.00
2015,09,29,16,03,22.10
2015,09,29,16,04,22.10
2015,09,29,16,05,22.10
2015,09,29,16,06,22.10
2015,09,29,16,07,22.10
2015,09,29,16,08,22.10
2015,09,29,16,09,22.10
2015,09,29,16,10,22.10
2015,09,29,16,11,22.10
2015,09,29,16,12,22.10
2015,09,29,16,13,22.00
2015,09,29,16,14,22.00
2015,09,29,16,15,22.00
2015,09,29,16,16,21.90
2015,09,29,16,17,21.90
2015,09,29,16,18,21.90
2015,09,29,16,19,21.90
2015,09,29,16,20,21.90
2015,09,29,16,21,21.80
2015,09,29,16,22,21.80
2015,09,29,16,23,21.80
2015,09,29,16,24,21.80
2015,09,29,16,25,21.80
2015,09,29,16,26,21.80
2015,09,29,16,27,21.70
2015,09,29,16,28,21.70
2015,09,29,16,29,21.70
2015,09,29,16,30,21.70
2015,09,29,16,31,21.70
2015,09,29,16,32,21.70
2015,09,29,16,33,21.60
2015,09,29,16,34,21.60
2015,09,29,16,35,21.60
2015,09,29,16,36,21.60
2015,09,29,16,37,21.60
2015,09,29,16,38,21.60
2015,09,29,16,39,21.60
2015,09,29,16,40,21.60
2015,09,29,16,41,21.50
2015,09,29,16,42,21.50
2015,09,29,16,43,21.50
2015,09,29,16,44,21.40
2015,09,29,16,45,21.40
2015,09,29,16,46,21.40
2015,09,29,16,47,21.40
2015,09,29,16,48,21.40
2015,09,29,16,49,21.40
2015,09,29,16,50,21.40
2015,09,29,16,51,21.30
2015,09,29,16,52,21.30
2015,09,29,16,53,21.30
2015,09,29,16,54,21.30
2015,09,29,16,55,21.30
2015,09,29,16,56,21.30
2015,09,29,16,57,21.30
2015,09,29,16,58,21.30
2015,09,29,16,59,21.30
2015,09,29,17,00,21.30
2015,09,29,17,01,21.30
2015,09,29,17,02,21.30
2015,09,29,17,03,21.30
2015,09,29,17,04,21.30
2015,09,29,17,05,21.20
2015,09,29,17,06,21.20
2015,09,29,17,07,21.10
2015,09,29,17,08,21.10
2015,09,29,17,09,21.10
2015,09,29,17,10,21.00
2015,09,29,17,11,21.00
2015,09,29,17,12,21.00
2015,09,29,17,13,20.90
2015,09,29,17,14,20.90
2015,09,29,17,15,20.90
2015,09,29,17,16,20.90
2015,09,29,17,17,20.80
2015,09,29,17,18,20.80
2015,09,29,17,19,20.80
2015,09,29,17,20,20.80
2015,09,29,17,21,20.80
2015,09,29,17,22,20.70
2015,09,29,17,23,20.70
2015,09,29,17,24,20.70
2015,09,29,17,25,20.80
2015,09,29,17,26,20.70
2015,09,29,17,27,20.70
2015,09,29,17,28,20.70
2015,09,29,17,29,20.70
2015,09,29,17,30,20.70
2015,09,29,17,31,20.70
2015,09,29,17,32,20.60
2015,09,29,17,33,20.60
2015,09,29,17,34,20.60
2015,09,29,17,35,20.50
2015,09,29,17,36,20.50
2015,09,29,17,37,20.50
2015,09,29,17,38,20.40
2015,09,29,17,39,20.40
2015,09,29,17,40,20.40
2015,09,29,17,41,20.40
2015,09,29,17,42,20.30
2015,09,29,17,43,20.30
2015,09,29,17,44,20.30